Flag for Austria Weather past 2 weeks in Bruck an der Mur, Styria, Austria

Now
43 °F

Passing clouds.


Feels Like: 41 °F
Forecast: 34 / 54 °F
Wind: 3 mph from Southwest

Location: Zeltweg

Current Time: Oct 24, 2014 at 11:01:58 PM

Latest Report: Oct 24, 2014 at 9:50 PM


Visibility: 9 mi

Pressure: 30.12 "Hg

Humidity: 87%

Dew point: 39 °F

Location of Bruck an der MurLocation

Historic Weather in Bruck an der Mur — Graph

°F

Bruck an der Mur temperature yesterday

Maximum temperature yesterday: 48 °F (at 3:50 PM)
Minimum temperature yesterday: 37 °F (at 7:20 AM)
Average temperature yesterday: 43 °F

Past Weeks' High & Low Weather Summary

 TemperatureHumidityPressure
High73 °F (Oct 10, 2:50 PM)100% (Oct 10, 7:50 AM)30.36 "Hg (Oct 10, 7:50 AM)
Low37 °F (Oct 18, 7:50 AM)40% (Oct 14, 2:20 PM)29.68 "Hg (Oct 21, 10:50 PM)
Average55 °F77%29.95 "Hg
* Reported Oct 9 9:50 PM — Oct 24 9:50 PM, Bruck an der Mur, Weather by CustomWeather, © 2014

Note: Actual official high and low records may vary slightly from our data, if they occured in-between our weather recording intervals... More about our weather records

Advertising

Bruck an der Mur weather history for previous 24 hours

 ConditionsComfort  
Time TempWeatherWind HumidityBarometerVisibility
9:50 PM
Oct 24
43 °FPassing clouds.3 mph87%30.12 "Hg9 mi
8:50 PM43 °FPassing clouds.3 mph87%30.12 "Hg9 mi
7:50 PM39 °FPassing clouds.6 mph87%30.09 "Hg9 mi
6:50 PM43 °FPassing clouds.3 mph76%30.07 "Hg12 mi
5:50 PM48 °FScattered clouds.3 mph66%30.07 "Hg25 mi
4:50 PM50 °FScattered clouds.3 mph62%30.07 "Hg25 mi
4:20 PM50 °FScattered clouds.6 mph62%30.07 "Hg25 mi
3:50 PM52 °FScattered clouds.7 mph58%30.07 "Hg25 mi
3:20 PM54 °FScattered clouds.5 mph54%30.07 "Hg25 mi
2:50 PM54 °FScattered clouds.8 mph54%30.07 "Hg25 mi
2:20 PM54 °FScattered clouds.8 mph54%30.07 "Hg25 mi
1:50 PM54 °FScattered clouds.3 mph54%30.07 "Hg25 mi
1:20 PM52 °FScattered clouds.3 mph62%30.07 "Hg25 mi
12:50 PM52 °FScattered clouds.3 mph58%30.09 "Hg25 mi
12:20 PM52 °FScattered clouds.2 mph58%30.09 "Hg25 mi
11:50 AM54 °FScattered clouds.3 mph54%30.09 "Hg25 mi
11:20 AM48 °FScattered clouds.3 mph66%30.09 "Hg25 mi
10:50 AM48 °FScattered clouds.2 mph71%30.09 "Hg25 mi
10:20 AM46 °FScattered clouds.3 mph76%30.09 "Hg25 mi
9:50 AM45 °FScattered clouds.2 mph76%30.09 "Hg25 mi
9:20 AM45 °FScattered clouds.3 mph76%30.09 "Hg25 mi
8:50 AM43 °FScattered clouds.3 mph81%30.07 "Hg25 mi
8:20 AM41 °FPassing clouds.5 mph87%30.07 "Hg25 mi
7:50 AM41 °FPassing clouds.2 mph81%30.07 "Hg25 mi
7:20 AM39 °FPassing clouds.3 mph87%30.04 "Hg22 mi
6:50 AM41 °FPassing clouds.3 mph81%30.04 "Hg12 mi
5:50 AM41 °FPassing clouds.3 mph87%30.09 "Hg9 mi
4:50 AM43 °FPassing clouds.3 mph81%30.04 "Hg9 mi
Weather by CustomWeather, © 2014

See weather overviewHow to use our weather pages